[[{"header":{"parameterUnit":"m.s-1","parameterCategory":1,"la1":30.2991,"la2":30.254,"lo1":-89.0895,"lo2":-89.0444,"dy":0.0017,"dx":0.0017,"nx":28,"ny":28,"refTime":"2025-07-17T09:00:00:Z","depth":0,"parameterNumber":2,"parameterNumberName":"U-component_of_WINDS"},"data":[0,0,0,0,0,0,0,0,0,0,0,0,0,0,0,0,0,0,0,0,0,0,0,0,0,0,0,0,0,0,0,0,0,0,0,0,0,0,0,0,0,0,0,0,0,0,0,0,0,0,0,0,0,0,0,0,0,0,-2.9416,-2.9419,0,-2.9611,-2.9613,-2.9615,-2.9786,-2.9788,-2.979,-2.9792,-2.9978,-2.9981,-2.9984,0,0,0,0,0,0,0,0,0,0,0,0,0,-2.9178,-2.9182,-2.9416,-2.9419,-2.9421,-2.961,-2.9613,-2.9616,-2.9785,-2.9788,-2.979,-2.9793,-2.9977,-2.998,-2.9984,0,0,0,0,0,0,0,0,0,0,0,0,0,-2.9317,-2.9183,-2.9416,-2.9529,-2.9541,-2.961,-2.9613,-2.9616,-2.9785,-2.9788,-2.9791,-2.9794,-2.9975,-2.998,-2.9984,-2.9953,0,0,-2.9999,-3.0001,0,0,0,0,0,0,0,0,-2.9309,-2.9326,-2.951,-2.9521,-2.9535,-2.9678,-2.9598,-2.9729,-2.9784,-2.9692,-2.9792,-2.9795,-2.9874,-2.9887,-2.9917,-2.9961,-2.9969,-2.9999,-3.0002,-3.0004,-3.0005,0,0,0,0,0,0,0,-2.93,-2.9318,-2.9493,-2.9512,-2.9528,-2.9565,-2.9589,-2.9623,-2.9763,-2.97,-2.9713,-2.9734,-2.9882,-2.9912,-2.9923,-2.9972,-2.9999,-3.0003,-3.0006,-3.0008,-2.9995,-2.9992,0,0,0,0,0,0,-2.9274,-2.9309,-2.9487,-2.9499,-2.9428,-2.9567,-2.9593,-2.9628,-2.9764,-2.9787,-2.9732,-2.9742,-2.9903,-2.9917,-2.993,-2.9898,-3.0004,-3.0008,-3.0011,-2.9998,-2.9994,-2.9991,0,0,0,0,0,0,-2.9269,-2.9289,-2.9479,-2.9408,-2.9435,-2.9568,-2.9606,-2.9631,-2.9661,-2.9788,-2.9812,-2.9738,-2.9906,-2.9923,-2.9946,-2.9907,-3.001,-3.0014,-3.0002,-2.9997,-2.9993,-2.9836,0,0,0,0,0,0,-2.9261,-2.9286,-2.9278,-2.9407,-2.9438,-2.9495,-2.9604,-2.9632,-2.967,-2.9685,-2.98,-2.9822,-2.9909,-2.9938,-2.995,-2.9915,-3.0018,-3.0006,-3.0,-2.9994,-2.9845,-2.9826,-2.981,0,0,0,0,0,-2.9252,-2.9225,-2.9277,-2.9297,-2.9433,-2.9493,-2.951,-2.9616,-2.9667,-2.9658,-2.9738,-2.9818,-2.991,-2.9939,-2.9954,-2.992,-3.0009,-3.0001,-2.9995,-2.9852,-2.983,-2.9811,0,0,0,0,0,0,-2.9084,-2.9244,-2.9303,-2.9318,-2.9391,-2.9522,-2.9514,-2.9589,-2.9646,-2.9657,-2.9781,-2.9805,-2.9812,-2.9869,-2.9898,-2.9894,-2.997,-2.9965,-2.9856,-2.9836,-2.9819,-2.9803,-3.0022,0,0,0,0,0,-2.905,-2.909,-2.9225,-2.9224,-2.9258,-2.9379,-2.9409,-2.9485,-2.9563,-2.9594,-2.9677,-2.9746,-2.9791,-2.9817,-2.9865,-2.9855,-2.9879,-2.9838,-2.9821,-2.9806,-2.98,-2.9793,-2.9775,-2.9968,-2.9968,-2.9968,0,0,-2.8977,-2.9069,-2.9086,-2.9193,-2.9259,-2.9292,-2.9404,-2.9436,-2.946,-2.9598,-2.9624,-2.9686,-2.9772,-2.9776,-2.9783,-2.9824,-2.9752,-2.9798,-2.9785,-2.9786,-2.9784,-2.9766,-2.9749,-2.9963,-2.9964,-2.9965,0,0,-2.8862,-2.8938,-2.8944,-2.9007,-2.9106,-2.9187,-2.9187,-2.9307,-2.9355,-2.9384,-2.9487,-2.9515,-2.9591,-2.9646,-2.9684,-2.9587,-2.966,-2.9599,-2.9507,-2.95,-2.9484,-2.9471,-2.9432,-2.9417,-2.9593,-2.9593,-2.9592,0,-2.8758,-2.8817,-2.8936,-2.8961,-2.9002,-2.9132,-2.9135,-2.919,-2.9297,-2.932,-2.9367,-2.9462,-2.9529,-2.9546,-2.9522,-2.955,-2.9551,-2.9585,-2.9478,-2.9466,-2.9456,-2.9419,-2.9404,-2.9584,-2.9585,-2.9586,-2.9587,0,-2.8682,-2.8721,-2.8713,-2.8817,-2.8858,-2.8871,-2.8987,-2.9013,-2.9084,-2.9157,-2.9182,-2.9268,-2.9334,-2.9344,-2.9413,-2.9369,-2.9391,-2.9456,-2.9534,-2.9427,-2.9394,-2.9382,-2.9572,-2.9575,-2.9578,-2.958,0,0,-2.8465,-2.8634,-2.8629,-2.8676,-2.8794,-2.8823,-2.8841,-2.8909,-2.8926,-2.8996,-2.9009,-2.9069,-2.9129,-2.9172,-2.9248,-2.9242,-2.9153,-2.9307,-2.9311,-2.9271,-2.9104,-2.9051,-2.9034,-2.9204,-2.9202,-2.92,-2.9095,0,-2.8365,-2.8409,-2.8515,-2.8523,-2.8557,-2.868,-2.8694,-2.8765,-2.8833,-2.8869,-2.8944,-2.8982,-2.9061,-2.9087,-2.9087,-2.9164,-2.912,-2.9173,-2.9212,-2.9212,-2.9182,-2.9018,-2.8963,-2.886,-2.9084,-2.9082,-2.9081,0,-2.8255,-2.8319,-2.8331,-2.8444,-2.8462,-2.8474,-2.8542,-2.8577,-2.8657,-2.8707,-2.8754,-2.8839,-2.8858,-2.8933,-2.8958,-2.8992,-2.9014,-2.9054,-2.9052,-2.9056,-2.9136,-2.9012,-2.8831,-2.8813,-2.9063,-2.9064,-2.9065,0,-2.8089,-2.8178,-2.8196,-2.8233,-2.8367,-2.8371,-2.8426,-2.8511,-2.8543,-2.8602,-2.8623,-2.8682,-2.8713,-2.8754,-2.885,-2.8897,-2.8862,-2.8946,-2.8899,-2.8896,-2.8883,-2.8881,-2.8696,-2.8904,-2.8904,-2.8905,-2.8905,0,-2.7964,-2.7965,-2.8123,-2.8133,-2.8137,-2.8257,-2.8255,-2.8321,-2.8394,-2.8416,-2.8525,-2.8542,-2.867,-2.87,-2.8775,-2.8781,-2.8795,-2.8831,-2.885,-2.8819,-2.8814,-2.8832,-2.884,-2.8901,-2.8902,-2.8902,-2.8903,0,-2.7778,-2.7886,-2.7912,-2.8037,-2.8068,-2.8064,-2.8168,-2.818,-2.8256,-2.8281,-2.8293,-2.841,-2.8451,-2.8552,-2.8618,-2.8668,-2.8652,-2.869,-2.8625,-2.8636,-2.8581,-2.8583,-2.8398,-2.8378,-2.8602,-2.8599,-2.8598,0,-2.769,-2.7694,-2.7819,-2.7843,-2.7894,-2.7932,-2.7966,-2.8083,-2.8113,-2.8204,-2.8203,-2.8253,-2.8299,-2.8357,-2.8444,-2.8494,-2.8532,-2.8464,-2.8539,-2.8506,-2.8524,-2.8521,-2.8519,-2.8445,-2.8442,-2.8439,-2.8437,0,-2.7519,-2.7571,-2.7619,-2.7684,-2.7722,-2.7778,-2.784,-2.7852,-2.7983,-2.801,-2.8055,-2.809,-2.8159,-2.8204,-2.8268,-2.8319,-2.8397,-2.8414,-2.8404,-2.837,-2.833,-2.8345,-2.8574,-2.8416,-2.8418,-2.842,-2.8421,-2.8422,-2.7376,-2.7384,-2.7472,-2.752,-2.758,-2.7634,-2.765,-2.7728,-2.7769,-2.7836,-2.7901,-2.7937,-2.8014,-2.8108,-2.8153,-2.818,-2.8221,-2.8208,-2.8204,-2.8198,-2.8182,-2.833,-2.8192,-2.8193,-2.8194,-2.8194,-2.8195,0,-2.7206,-2.727,-2.7313,-2.7396,-2.7432,-2.7509,-2.758,-2.7603,-2.7635,-2.7702,-2.7745,-2.7793,-2.7838,-2.7929,-2.798,-2.7983,-2.802,-2.7992,-2.799,-2.8,-2.8145,-2.8146,-2.7961,-2.7961,-2.7961,-2.7961,-2.7961,-2.7961,-2.7122,-2.7138,-2.72,-2.7243,-2.7306,-2.7345,-2.7378,-2.7426,-2.748,-2.753,-2.7569,-2.763,-2.7704,-2.7762,-2.7804,-2.783,-2.784,-2.78,-2.7835,-2.7968,-2.799,-2.8011,-2.8012,-2.7803,-2.7803,-2.7688,-2.7687,-2.7686]},{"header":{"parameterUnit":"m.s-1","parameterCategory":1,"la1":30.2991,"la2":30.254,"lo1":-89.0895,"lo2":-89.0444,"dy":0.0017,"dx":0.0017,"nx":28,"ny":28,"refTime":"2025-07-17T09:00:00:Z","depth":0,"parameterNumber":3,"parameterNumberName":"V-component_of_WINDS"},"data":[0,0,0,0,0,0,0,0,0,0,0,0,0,0,0,0,0,0,0,0,0,0,0,0,0,0,0,0,0,0,0,0,0,0,0,0,0,0,0,0,0,0,0,0,0,0,0,0,0,0,0,0,0,0,0,0,0,0,1.8106,1.8115,0,1.8943,1.8953,1.8962,1.9339,1.9338,1.9338,1.9337,2.0209,2.0232,2.0256,0,0,0,0,0,0,0,0,0,0,0,0,0,1.685,1.6871,1.8105,1.8116,1.8126,1.8941,1.8953,1.8964,1.934,1.9338,1.9337,1.9336,2.0201,2.0229,2.0258,0,0,0,0,0,0,0,0,0,0,0,0,0,1.7512,1.6878,1.8103,1.8411,1.8447,1.8939,1.8953,1.8968,1.934,1.9338,1.9337,1.9336,2.0191,2.0227,2.0262,2.0515,0,0,2.0373,2.0389,0,0,0,0,0,0,0,0,1.7474,1.7558,1.8356,1.8391,1.8432,1.9035,1.8831,1.9487,1.934,1.9001,1.9337,1.9335,1.982,1.9887,2.0048,2.0556,2.0594,2.0376,2.0398,2.0414,2.0424,0,0,0,0,0,0,0,1.7427,1.7524,1.8437,1.8367,1.8414,1.8514,1.8606,1.8957,1.941,1.9031,1.906,1.9153,1.9841,2.0012,2.0071,2.0607,2.0375,2.0407,2.043,2.0444,2.1372,2.1375,0,0,0,0,0,0,1.7329,1.7483,1.8411,1.8463,1.7939,1.8537,1.8641,1.8843,1.9407,1.9491,1.9154,1.9168,1.9951,2.0028,2.0103,2.0441,2.0413,2.0447,2.0468,2.1369,2.1373,2.1376,0,0,0,0,0,0,1.73,1.7408,1.8377,1.7981,1.8112,1.856,1.8785,1.886,1.9032,1.9499,1.9584,1.9244,1.9953,2.0052,2.0411,2.0476,2.0464,2.0497,2.1366,2.137,2.1374,2.1114,0,0,0,0,0,0,1.7263,1.7395,1.7492,1.798,1.8131,1.8664,1.8789,1.8878,1.9091,1.9118,1.9606,1.9686,1.9959,2.0354,2.0446,2.0526,2.0525,2.1362,2.1368,2.1373,2.1119,2.1109,2.11,0,0,0,0,0,1.7217,1.7387,1.7494,1.7604,1.826,1.8667,1.8754,1.9061,1.9094,1.9199,1.95,1.967,2.0453,2.0388,2.0495,2.0586,2.1359,2.1366,2.1372,2.1123,2.1111,2.1101,0,0,0,0,0,0,1.69,1.7457,1.7582,1.7915,1.824,1.8729,1.887,1.9038,1.9364,1.9376,1.9747,1.9855,2.0181,2.0421,2.0338,2.0864,2.0922,2.095,2.0696,2.0688,2.0679,2.0616,2.0555,0,0,0,0,0,1.6867,1.7145,1.762,1.7868,1.8024,1.8417,1.8606,1.8814,1.9168,1.9309,1.9637,1.9978,2.0303,2.0509,2.0833,2.1155,2.127,2.1271,2.1261,2.1252,2.1273,2.1467,2.1474,2.1397,2.1397,2.1397,0,0,1.6806,1.7145,1.7299,1.7813,1.8089,1.8375,1.8531,1.8826,1.9044,1.9357,1.9714,1.9966,2.0373,2.0714,2.0882,2.0924,2.1319,2.126,2.1248,2.1277,2.1474,2.1481,2.1487,2.1402,2.1401,2.14,0,0,1.6841,1.7121,1.7361,1.7635,1.805,1.8311,1.8367,1.8834,1.9012,1.9375,1.9617,1.9884,2.0432,2.0714,2.0928,2.1071,2.1242,2.1166,2.112,2.1304,2.131,2.1318,2.1373,2.1388,2.1185,2.1184,2.1184,0,1.6713,1.7147,1.7464,1.7747,1.7968,1.826,1.8509,1.8761,1.9262,1.9411,1.9449,2.0146,2.0441,2.0855,2.0889,2.1052,2.1134,2.1113,2.1282,2.1293,2.1305,2.1362,2.1381,2.1173,2.1174,2.1175,2.1176,0,1.6973,1.727,1.7415,1.7886,1.8125,1.8388,1.8752,1.8956,1.9144,1.9402,1.9772,2.0135,2.0539,2.0653,2.084,2.1096,2.1109,2.1209,2.1276,2.1295,2.1355,2.1379,2.1156,2.116,2.1164,2.1167,0,0,1.6832,1.7475,1.7523,1.7742,1.8223,1.8463,1.8742,1.9133,1.9303,1.964,1.9888,2.0346,2.0443,2.0686,2.0909,2.1069,2.1165,2.1154,2.1169,2.1146,2.1475,2.1398,2.1418,2.128,2.1285,2.129,2.1443,0,1.6934,1.7442,1.7737,1.8127,1.8409,1.8691,1.8936,1.926,1.951,1.9791,2.007,2.039,2.0491,2.0641,2.0812,2.1115,2.1237,2.1109,2.1521,2.1532,2.1412,2.1449,2.1369,2.1495,2.1468,2.1472,2.1475,0,1.7122,1.7448,1.7863,1.8314,1.8445,1.8658,1.9042,1.9305,1.9682,1.9853,2.0123,2.0346,2.0659,2.0697,2.1138,2.1044,2.1231,2.1406,2.1419,2.1472,2.1505,2.1507,2.1542,2.1561,2.1514,2.1511,2.1508,0,1.6981,1.7525,1.7846,1.8024,1.8557,1.8702,1.8932,1.9306,1.9523,1.9861,2.0007,2.0377,2.0581,2.0866,2.1185,2.1183,2.1596,2.166,2.1752,2.1744,2.1829,2.1819,2.1897,2.1941,2.1941,2.194,2.194,0,1.7067,1.7311,1.779,1.7986,1.8271,1.861,1.8885,1.9139,1.9469,1.9726,1.9994,2.023,2.0635,2.0924,2.1176,2.1505,2.1594,2.1746,2.1811,2.1724,2.1705,2.1854,2.1855,2.1946,2.1945,2.1944,2.1943,0,1.6959,1.7288,1.7656,1.813,1.8255,1.8444,1.8854,1.906,1.9322,1.9644,1.974,2.0155,2.0509,2.0854,2.133,2.15,2.1828,2.1912,2.1699,2.1735,2.1809,2.1799,2.1989,2.2034,2.204,2.2039,2.2039,0,1.6993,1.7187,1.7681,1.7869,1.8092,1.8392,1.8614,1.8958,1.9179,1.9624,1.9777,2.0149,2.0466,2.1019,2.1367,2.1734,2.1832,2.1873,2.1889,2.1797,2.1838,2.1823,2.1847,2.1864,2.1862,2.1861,2.1859,0,1.702,1.7174,1.748,1.7845,1.8101,1.8406,1.8722,1.8862,1.9269,1.9505,1.9867,2.0111,2.0596,2.0965,2.1372,2.1618,2.1809,2.1851,2.1893,2.1808,2.1678,2.1753,2.1677,2.1846,2.1847,2.1848,2.1849,2.185,1.699,1.7176,1.7552,1.7887,1.8159,1.8447,1.8664,1.8954,1.9259,1.9677,1.9864,2.0229,2.0608,2.1174,2.1416,2.1712,2.176,2.1819,2.1835,2.1845,2.1827,2.1626,2.1787,2.1788,2.1789,2.179,2.1791,0,1.7034,1.7289,1.7593,1.8023,1.8287,1.8437,1.8796,1.9009,1.9325,1.9659,1.9963,2.0382,2.0742,2.1117,2.15,2.1666,2.1763,2.1755,2.1748,2.1803,2.1761,2.1688,2.167,2.167,2.167,2.167,2.167,2.167,1.7088,1.7413,1.7611,1.8076,1.8335,1.869,1.8882,1.9153,1.9421,1.9874,2.0172,2.0413,2.0767,2.1177,2.1516,2.1619,2.1749,2.1716,2.1843,2.1797,2.1805,2.1813,2.1747,2.1741,2.1741,2.1863,2.1863,2.1864]}]]